Find Local Weather

World > North America > United States > North Carolina

Grimesland, North Carolina Regional Weather

Lat: 35.56N, Lon: 77.19W
Wx Zone: NCZ044
Warning FLW WEATHER ALERT - (More Info. Click Here) Warning
Feedback

Grimesland, NC Regional Weather

Expires:201905270900;;533794
ASUS42 KMHX 270825
RWRMHX
WEATHER ROUNDUP FOR EASTERN NORTH CAROLINA
NATIONAL WEATHER SERVICE NEWPORT/MOREHEAD CITY NC
400 AM EDT MON MAY 27 2019

NOTE: "FAIR" INDICATES FEW OR NO CLOUDS BELOW 12,000 FEET
WITH NO SIGNIFICANT WEATHER AND/OR OBSTRUCTIONS TO VISIBILITY


NCZ011>013-027>030-043-044-078>080-089-090>093-098-270900-
COASTAL PLAIN
  
CITY           SKY/WX    TMP DP  RH WIND       PRES   REMARKS
AHOSKIE        NOT AVBL                                               
CLINTON        FAIR      72  65  80 CALM      29.95R                  
ELIZABETHTOWN  FAIR      74  62  64 SW8       29.95S                  
GOLDSBORO      FAIR      75  65  70 W6        29.92R                  
GREENVILLE     FAIR      75  63  64 CALM      29.94R                  
HAVELOCK       FAIR      73  69  87 SW6       29.92F                  
KENANSVILLE    FAIR      68  64  88 SW3       29.93S                  
KINSTON        FAIR      73  64  74 SW3       29.93S                  
NEW BERN       FAIR      74  69  85 SW7       29.92F                  
RICHLANDS      FAIR      69  68  96 S5        29.93F                  
ROCKY MOUNT    FAIR      77  64  64 NW6       29.93S                  
WASHINGTON     FAIR      72  64  75 CALM      29.91S                  
WHITEVILLE     FAIR      74  65  72 SW3       29.95S                  

$$


SKY/WX - Weather  TMP - Temperature  DP - Dew Point  RH - Relative Humidity
WIND - Wind Direction/Speed PRES - Barometric Pressure VSB - Visibility
WCI - Wind Chill Index E13G22 Wind - East Wind 13 mph/Gusts of 22 mph